When you browse on this site, cookies collect data to enhance your experience and personalize the content and advertising you see.
Visit our Privacy Policy to learn more. By continuing to use the site, you agree to this use of cookies and data.

Hourly Weather Zaranj

Today, 4 August, Tuesday

Time Temperature Precipitation Wind Pressure Humidity
00:00 +36°C° 0 mm 14 mps 707 mmHg 13%
01:00 +36°C° 0 mm 15 mps 707 mmHg 14%
02:00 +34°C° 0 mm 15 mps 707 mmHg 14%
03:00 +34°C° 0 mm 15 mps 706 mmHg 15%
04:00 +33°C° 0 mm 15 mps 706 mmHg 16%
05:00 +33°C° 0 mm 15 mps 707 mmHg 15%
06:00 +35°C° 0 mm 16 mps 707 mmHg 15%
07:00 +35°C° 0 mm 17 mps 708 mmHg 14%
08:00 +37°C° 0 mm 17 mps 708 mmHg 12%
09:00 +40°C° 0 mm 17 mps 708 mmHg 11%
10:00 +42°C° 0 mm 17 mps 708 mmHg 9%
11:00 +45°C° 0 mm 17 mps 708 mmHg 8%
12:00 +46°C° 0 mm 16 mps 707 mmHg 7%
13:00 +49°C° 0 mm 16 mps 707 mmHg 6%
14:00 +49°C° 0 mm 16 mps 707 mmHg 6%
15:00 +47°C° 0 mm 16 mps 706 mmHg 6%
16:00 +47°C° 0 mm 16 mps 705 mmHg 6%
17:00 +45°C° 0 mm 15 mps 706 mmHg 8%
18:00 +43°C° 0 mm 14 mps 706 mmHg 9%
19:00 +41°C° 0 mm 13 mps 706 mmHg 11%
20:00 +40°C° 0 mm 14 mps 706 mmHg 13%
21:00 +38°C° 0 mm 15 mps 706 mmHg 15%
22:00 +37°C° 0 mm 16 mps 706 mmHg 17%
23:00 +36°C° 0 mm 15 mps 707 mmHg 19%

Tomorrow, 5 August, Wednesday

Time Temperature Precipitation Wind Pressure Humidity
00:00 +34°C° 0 mm 15 mps 707 mmHg 22%
01:00 +33°C° 0 mm 15 mps 707 mmHg 24%
02:00 +32°C° 0 mm 14 mps 707 mmHg 28%
03:00 +31°C° 0 mm 14 mps 707 mmHg 32%
04:00 +29°C° 0 mm 14 mps 706 mmHg 37%
05:00 +29°C° 0 mm 14 mps 707 mmHg 36%
06:00 +29°C° 0 mm 14 mps 708 mmHg 36%
07:00 +31°C° 0 mm 14 mps 708 mmHg 36%
08:00 +33°C° 0 mm 14 mps 709 mmHg 30%
09:00 +37°C° 0 mm 14 mps 709 mmHg 24%
10:00 +39°C° 0 mm 13 mps 709 mmHg 18%
11:00 +42°C° 0 mm 12 mps 709 mmHg 16%
12:00 +44°C° 0 mm 11 mps 709 mmHg 13%
13:00 +47°C° 0 mm 11 mps 708 mmHg 10%
14:00 +47°C° 0 mm 11 mps 708 mmHg 10%
15:00 +47°C° 0 mm 12 mps 707 mmHg 10%
16:00 +47°C° 0 mm 13 mps 707 mmHg 10%
17:00 +44°C° 0 mm 12 mps 707 mmHg 12%
18:00 +42°C° 0 mm 11 mps 707 mmHg 14%
19:00 +40°C° 0 mm 10 mps 707 mmHg 15%
20:00 +38°C° 0 mm 10 mps 707 mmHg 17%
21:00 +37°C° 0 mm 11 mps 708 mmHg 19%
22:00 +36°C° 0 mm 11 mps 708 mmHg 21%
23:00 +34°C° 0 mm 11 mps 708 mmHg 22%

Day after tomorrow, 6 August, Thursday

Time Temperature Precipitation Wind Pressure Humidity
00:00 +34°C° 0 mm 11 mps 708 mmHg 23%
01:00 +33°C° 0 mm 10 mps 708 mmHg 24%
02:00 +32°C° 0 mm 10 mps 708 mmHg 25%
03:00 +31°C° 0 mm 10 mps 708 mmHg 25%
04:00 +31°C° 0 mm 10 mps 708 mmHg 26%
05:00 +31°C° 0 mm 10 mps 708 mmHg 24%
06:00 +32°C° 0 mm 10 mps 709 mmHg 23%
07:00 +32°C° 0 mm 10 mps 709 mmHg 22%
08:00 +34°C° 0 mm 9 mps 709 mmHg 19%
09:00 +38°C° 0 mm 9 mps 710 mmHg 16%
10:00 +40°C° 0 mm 9 mps 710 mmHg 13%
11:00 +43°C° 0 mm 8 mps 710 mmHg 11%
12:00 +45°C° 0 mm 7 mps 709 mmHg 10%
13:00 +47°C° 0 mm 7 mps 709 mmHg 8%
14:00 +48°C° 0 mm 6 mps 709 mmHg 7%
15:00 +48°C° 0 mm 6 mps 708 mmHg 6%
16:00 +49°C° 0 mm 6 mps 708 mmHg 5%
17:00 +46°C° 0 mm 6 mps 707 mmHg 8%
18:00 +42°C° 0 mm 5 mps 707 mmHg 10%
19:00 +40°C° 0 mm 5 mps 707 mmHg 12%
20:00 +39°C° 0 mm 7 mps 707 mmHg 14%
21:00 +38°C° 0 mm 8 mps 708 mmHg 15%
22:00 +38°C° 0 mm 10 mps 708 mmHg 17%
23:00 +37°C° 0 mm 11 mps 708 mmHg 18%

7 August, Friday

Time Temperature Precipitation Wind Pressure Humidity
00:00 +36°C° 0 mm 11 mps 707 mmHg 19%
01:00 +34°C° 0 mm 12 mps 707 mmHg 20%
02:00 +33°C° 0 mm 12 mps 707 mmHg 20%
03:00 +33°C° 0 mm 13 mps 707 mmHg 21%
04:00 +32°C° 0 mm 13 mps 707 mmHg 21%
05:00 +33°C° 0 mm 13 mps 708 mmHg 20%
06:00 +33°C° 0 mm 13 mps 708 mmHg 20%
07:00 +33°C° 0 mm 14 mps 708 mmHg 19%
08:00 +36°C° 0 mm 14 mps 709 mmHg 16%
09:00 +38°C° 0 mm 14 mps 709 mmHg 14%
10:00 +41°C° 0 mm 14 mps 709 mmHg 12%
11:00 +43°C° 0 mm 13 mps 709 mmHg 10%
12:00 +47°C° 0 mm 13 mps 709 mmHg 9%
13:00 +49°C° 0 mm 12 mps 708 mmHg 8%
14:00 +49°C° 0 mm 12 mps 708 mmHg 7%
15:00 +49°C° 0 mm 12 mps 707 mmHg 7%
16:00 +51°C° 0 mm 12 mps 707 mmHg 7%
17:00 +48°C° 0 mm 12 mps 707 mmHg 9%
18:00 +44°C° 0 mm 12 mps 707 mmHg 11%
19:00 +42°C° 0 mm 12 mps 707 mmHg 13%
20:00 +41°C° 0 mm 13 mps 707 mmHg 14%
21:00 +39°C° 0 mm 13 mps 707 mmHg 15%
22:00 +38°C° 0 mm 14 mps 707 mmHg 16%
23:00 +37°C° 0 mm 15 mps 707 mmHg 17%

8 August, Saturday

Time Temperature Precipitation Wind Pressure Humidity
00:00 +36°C° 0 mm 15 mps 707 mmHg 18%
01:00 +35°C° 0 mm 16 mps 706 mmHg 20%
02:00 +35°C° 0 mm 16 mps 706 mmHg 22%
03:00 +33°C° 0 mm 16 mps 706 mmHg 24%
04:00 +32°C° 0 mm 17 mps 706 mmHg 26%
05:00 +32°C° 0 mm 17 mps 707 mmHg 27%
06:00 +32°C° 0 mm 16 mps 707 mmHg 27%
07:00 +32°C° 0 mm 16 mps 708 mmHg 27%
08:00 +35°C° 0 mm 16 mps 708 mmHg 24%
09:00 +37°C° 0 mm 15 mps 708 mmHg 21%
10:00 +40°C° 0 mm 15 mps 708 mmHg 18%
11:00 +42°C° 0 mm 14 mps 708 mmHg 15%
12:00 +45°C° 0 mm 13 mps 708 mmHg 13%
13:00 +48°C° 0 mm 12 mps 708 mmHg 11%
14:00 +48°C° 0 mm 12 mps 707 mmHg 11%
15:00 +48°C° 0 mm 12 mps 707 mmHg 10%
16:00 +50°C° 0 mm 13 mps 706 mmHg 10%
17:00 +47°C° 0 mm 12 mps 706 mmHg 12%
18:00 +44°C° 0 mm 12 mps 706 mmHg 13%
19:00 +42°C° 0 mm 12 mps 706 mmHg 15%
20:00 +41°C° 0 mm 12 mps 706 mmHg 17%
21:00 +39°C° 0 mm 13 mps 707 mmHg 18%
22:00 +37°C° 0 mm 14 mps 707 mmHg 20%
23:00 +37°C° 0 mm 14 mps 707 mmHg 21%

9 August, Sunday

Time Temperature Precipitation Wind Pressure Humidity
00:00 +36°C° 0 mm 14 mps 707 mmHg 23%
01:00 +34°C° 0 mm 14 mps 707 mmHg 24%
02:00 +33°C° 0 mm 14 mps 707 mmHg 25%
03:00 +32°C° 0 mm 14 mps 707 mmHg 26%
04:00 +32°C° 0 mm 14 mps 707 mmHg 28%
05:00 +32°C° 0 mm 15 mps 707 mmHg 28%
06:00 +32°C° 0 mm 15 mps 708 mmHg 28%
07:00 +32°C° 0 mm 15 mps 708 mmHg 28%
08:00 +36°C° 0 mm 15 mps 708 mmHg 24%
09:00 +38°C° 0 mm 15 mps 708 mmHg 20%
10:00 +41°C° 0 mm 15 mps 709 mmHg 16%
11:00 +43°C° 0 mm 15 mps 708 mmHg 14%
12:00 +45°C° 0 mm 14 mps 708 mmHg 12%
13:00 +47°C° 0 mm 14 mps 708 mmHg 11%
14:00 +47°C° 0 mm 14 mps 707 mmHg 10%
15:00 +47°C° 0 mm 14 mps 707 mmHg 9%
16:00 +47°C° 0 mm 13 mps 706 mmHg 9%
17:00 +44°C° 0 mm 12 mps 706 mmHg 11%
18:00 +42°C° 0 mm 11 mps 706 mmHg 14%
19:00 +39°C° 0 mm 10 mps 706 mmHg 16%
20:00 +38°C° 0 mm 11 mps 706 mmHg 17%
21:00 +37°C° 0 mm 12 mps 707 mmHg 19%
22:00 +36°C° 0 mm 13 mps 707 mmHg 21%
23:00 +36°C° 0 mm 14 mps 706 mmHg 21%
Show more